User: anonymous   Login
Location: Unspecified
(0.0000°N, 0.0000°E)
Time: 01:54:46
(UTC+00:00)
Language:

ZACube-1 - Orbit

View from above orbital plane
View from above orbital plane
View from above satellite
View from above satellite

Ground track
Ground track

The orbit data is extracted from the following two-line orbital elements,

1 39417U 13066B   19016.95196865 +.00000152 +00000-0 +25510-4 0  9991
2 39417 097.5712 038.9723 0059210 173.3446 186.8568 14.81040774278436
Epoch (UTC): 16 January 2019 22:50:50
Eccentricity: 0.0059210
inclination: 97.5712°
perigee height: 584 km
apogee height: 667 km
right ascension of ascending node: 38.9723°
argument of perigee: 173.3446°
revolutions per day: 14.81040774
mean anomaly at epoch: 186.8568°
orbit number at epoch: 27843

The dashed part of the orbit path shows where the satellite is in the earth's shadow,  

DLR